TimePDT,TemperatureF,Dew PointF,Humidity,Sea Level PressureIn,VisibilityMPH,Wind Direction,Wind SpeedMPH,Gust SpeedMPH,PrecipitationIn,Events,Conditions,WindDirDegrees,DateUTC
12:51 AM,70.0,55.9,61,29.95,10.0,Calm,Calm,-,N/A,,Clear,0,2012-10-15 07:51:00
1:51 AM,70.0,53.1,55,29.94,10.0,Calm,Calm,-,N/A,,Clear,0,2012-10-15 08:51:00
2:51 AM,68.0,54.0,61,29.92,10.0,Calm,Calm,-,N/A,,Clear,0,2012-10-15 09:51:00
3:51 AM,66.0,53.1,63,29.91,10.0,Calm,Calm,-,N/A,,Clear,0,2012-10-15 10:51:00
4:51 AM,64.0,52.0,65,29.91,10.0,NNW,3.5,-,N/A,,Clear,330,2012-10-15 11:51:00
5:51 AM,66.0,48.9,54,29.91,10.0,Calm,Calm,-,N/A,,Clear,0,2012-10-15 12:51:00
6:51 AM,64.9,48.9,56,29.92,10.0,Calm,Calm,-,N/A,,Clear,0,2012-10-15 13:51:00
7:51 AM,69.1,51.1,53,29.93,10.0,Calm,Calm,-,N/A,,Clear,0,2012-10-15 14:51:00
8:51 AM,71.1,55.0,57,29.94,10.0,SSW,3.5,-,N/A,,Clear,200,2012-10-15 15:51:00
9:00 AM,-9999,-9999,N/A,-9999,-9999.0,North,-9999.0,-,N/A,,Sand,0,2012-10-15 16:00:00
9:51 AM,73.9,52.0,46,29.94,10.0,SW,3.5,-,N/A,,Clear,230,2012-10-15 16:51:00
10:47 AM,73.4,62.6,69,29.94,9.0,South,8.1,-,N/A,,Partly Cloudy,170,2012-10-15 17:47:00
10:51 AM,72.0,63.0,73,29.94,9.0,South,8.1,-,N/A,,Partly Cloudy,180,2012-10-15 17:51:00
11:51 AM,70.0,63.0,78,29.94,10.0,South,4.6,-,N/A,,Partly Cloudy,190,2012-10-15 18:51:00
12:51 PM,73.9,63.0,68,29.91,10.0,SSE,5.8,-,N/A,,Partly Cloudy,160,2012-10-15 19:51:00
1:51 PM,77.0,62.1,60,29.88,10.0,South,3.5,-,N/A,,Scattered Clouds,190,2012-10-15 20:51:00
2:51 PM,73.0,64.0,73,29.87,10.0,South,11.5,-,N/A,,Scattered Clouds,170,2012-10-15 21:51:00
3:51 PM,72.0,64.0,76,29.87,10.0,South,5.8,-,N/A,,Scattered Clouds,180,2012-10-15 22:51:00
4:33 PM,68.0,64.4,88,29.86,1.5,South,8.1,-,N/A,,Mostly Cloudy,190,2012-10-15 23:33:00
4:51 PM,68.0,64.9,90,29.87,1.5,South,5.8,-,N/A,,Mostly Cloudy,170,2012-10-15 23:51:00
5:04 PM,69.8,64.4,83,29.87,2.5,South,3.5,-,N/A,,Mostly Cloudy,180,2012-10-16 00:04:00
5:33 PM,69.8,64.4,83,29.87,1.0,South,5.8,-,N/A,,Overcast,170,2012-10-16 00:33:00
5:43 PM,68.0,64.4,88,29.87,0.8,SSE,4.6,-,N/A,,Overcast,160,2012-10-16 00:43:00
5:51 PM,68.0,66.0,93,29.87,0.8,Calm,Calm,-,N/A,,Overcast,0,2012-10-16 00:51:00
6:01 PM,69.8,66.2,88,29.87,1.5,SSE,3.5,-,N/A,,Mostly Cloudy,160,2012-10-16 01:01:00
6:26 PM,68.0,64.4,88,29.87,2.0,Calm,Calm,-,N/A,,Mostly Cloudy,0,2012-10-16 01:26:00
6:41 PM,69.8,64.4,83,29.87,3.0,ESE,4.6,-,N/A,,Mostly Cloudy,120,2012-10-16 01:41:00
6:51 PM,68.0,66.0,93,29.88,4.0,SSE,4.6,-,N/A,,Mostly Cloudy,160,2012-10-16 01:51:00
7:39 PM,69.8,64.4,83,29.88,5.0,South,4.6,-,N/A,,Scattered Clouds,170,2012-10-16 02:39:00
7:51 PM,69.1,64.9,87,29.88,7.0,South,4.6,-,N/A,,Scattered Clouds,170,2012-10-16 02:51:00
8:24 PM,69.8,64.4,83,29.89,3.0,SSW,3.5,-,N/A,,Scattered Clouds,200,2012-10-16 03:24:00
8:27 PM,69.8,64.4,83,29.89,1.8,SSW,4.6,-,N/A,,Scattered Clouds,200,2012-10-16 03:27:00
8:30 PM,66.2,64.4,94,29.89,1.0,SSW,4.6,-,N/A,,Mist,200,2012-10-16 03:30:00
8:35 PM,66.2,64.4,94,29.89,0.8,SSW,4.6,-,N/A,,Mist,210,2012-10-16 03:35:00
8:51 PM,66.0,64.9,96,29.89,1.0,SSW,3.5,-,N/A,,Mist,210,2012-10-16 03:51:00
8:58 PM,66.2,64.4,94,29.89,0.8,South,3.5,-,N/A,,Mist,180,2012-10-16 03:58:00
9:08 PM,66.2,64.4,94,29.89,0.2,South,3.5,-,N/A,Fog,Fog,170,2012-10-16 04:08:00
9:24 PM,66.2,64.4,94,29.90,0.2,Calm,Calm,-,N/A,Fog,Fog,0,2012-10-16 04:24:00
9:51 PM,66.0,64.9,96,29.91,0.2,SW,3.5,-,N/A,Fog,Fog,220,2012-10-16 04:51:00
10:10 PM,66.2,64.4,94,29.91,0.5,WSW,4.6,-,N/A,Fog,Fog,250,2012-10-16 05:10:00
10:35 PM,66.2,64.4,94,29.91,0.2,Calm,Calm,-,N/A,Fog,Fog,0,2012-10-16 05:35:00
10:46 PM,66.2,64.4,94,29.91,0.5,Calm,Calm,-,N/A,Fog,Fog,0,2012-10-16 05:46:00
10:51 PM,66.0,64.0,93,29.91,0.5,Calm,Calm,-,N/A,Fog,Fog,0,2012-10-16 05:51:00
11:51 PM,66.0,64.0,93,29.90,0.5,Calm,Calm,-,N/A,Fog,Fog,0,2012-10-16 06:51:00